Simultaneous Nadir Overpasses (SNOs) Predictions

Prediction of SNOs between GOES-15 and METOP-C Satellite Orbit:

Table of predicted SNOs for the next 14.0 days since TLE Epoch: 5/29/2021
Index Date Time (GOES-15) GOES-15 Lat,Lon METOP-C Lat,Lon Distance(km) Time Diff (sec)
1 05/29/2021 06:17:45 0.06,-128.39 -0.54,-131.09 307.44 80
2 05/30/2021 05:54:25 0.06,-128.40 0.58,-126.10 262.35 80
3 05/31/2021 18:13:16 -0.07,-128.45 0.44,-130.66 251.83 80
4 06/01/2021 17:55:16 -0.07,-128.47 -0.68,-125.67 318.81 80
5 06/03/2021 06:14:17 0.07,-128.45 -0.32,-130.27 206.91 80
6 06/04/2021 05:50:58 0.07,-128.46 0.81,-125.28 362.95 80
7 06/05/2021 18:09:48 -0.07,-128.50 0.22,-129.84 152.13 80
8 06/06/2021 17:51:49 -0.07,-128.51 -0.90,-124.84 418.26 80
9 06/08/2021 06:10:49 0.08,-128.50 -0.14,-129.44 107.32 80
10 06/09/2021 05:47:30 0.08,-128.50 0.98,-124.45 461.83 80
11 06/10/2021 18:06:20 -0.08,-128.52 0.05,-129.00 55.37 80
